Edinburg, TX

1:03 PM CST on February 23, 2018 (GMT -0600)
Edinburg

Weather History for KEBG - November, 2012

Change the Weather History Date:

Thursday, November 29, 2012

  Actual Average (KMFE) Record (KMFE)
Temperature  
Mean Temperature 67 °F -  
Max Temperature 79 °F 73 °F 94 °F (2016)
Min Temperature 55 °F 54 °F 33 °F (1976)
Cooling Degree Days 2    
Growing Degree Days 17 (Base 50)    
Moisture  
Dew Point 58 °F    
Average Humidity 74    
Maximum Humidity 93    
Minimum Humidity 48    
Precipitation  
Precipitation 0.00 in - - ()
Sea Level Pressure  
Sea Level Pressure 30.17 in    
Wind  
Wind Speed 2 mph (East)    
Max Wind Speed 10 mph    
Max Gust Speed -    
Visibility 6 miles    
Events Rain    
Averages and records for this station are not official NWS values.
T = Trace of Precipitation, MM = Missing Value Source: NWS Daily Summary

Daily Weather History Graph

Daily Weather History Graph

Search for Another Location

Airport or City:

Trip Planner

Search our weather history database for the weather conditions in past years. The results will help you decide how hot, cold, wet, or windy it might be!

Date:

Astronomy

Nov. 29, 2012 Rise Set
Actual Time 7:02 AM CST 5:39 PM CST
Civil Twilight 6:37 AM CST 6:04 PM CST
Nautical Twilight 6:08 AM CST 6:33 PM CST
Astronomical Twilight 5:40 AM CST 7:01 PM CST
Moon 6:44 PM CST (11/29) 7:49 AM CST (11/29)
Length of Visible Light 11h 27m
Length of Day
10h 37m
Full, 99% of the Moon is Illuminated
Nov 29
Full
Dec 6
Last Quarter
Dec 13
New
Dec 19
First Quarter
Dec 28
Full

Hourly Weather History & Observations

Time (CST) Temp. Dew Point Humidity Pressure Visibility Wind Dir Wind Speed Gust Speed Precip Events Conditions
12:15 AM 59.4 °F 56.3 °F 90% 30.25 in 5.0 mi Calm Calm - N/A   Clear
12:35 AM 59.4 °F 56.3 °F 90% 30.24 in 5.0 mi Calm Calm - N/A   Clear
12:55 AM 58.3 °F 55.4 °F 90% 30.24 in 4.0 mi Calm Calm - N/A   Clear
1:15 AM 57.7 °F 54.9 °F 90% 30.24 in 4.0 mi Calm Calm - N/A   Clear
1:35 AM 57.7 °F 55.0 °F 91% 30.23 in 4.0 mi Calm Calm - N/A   Clear
1:55 AM 57.4 °F 54.7 °F 91% 30.23 in 3.0 mi Calm Calm - N/A   Mist
2:15 AM 56.8 °F 54.5 °F 92% 30.22 in 2.5 mi Calm Calm - N/A   Mist
2:35 AM 56.3 °F 53.8 °F 91% 30.21 in 2.5 mi Calm Calm - N/A   Clear
2:55 AM 56.3 °F 54.0 °F 92% 30.21 in 2.5 mi Calm Calm - N/A   Clear
3:15 AM 56.7 °F 54.5 °F 92% 30.20 in 2.5 mi Calm Calm - N/A   Mist
3:35 AM 56.3 °F 54.0 °F 92% 30.20 in 2.5 mi Calm Calm - N/A   Mist
3:55 AM 56.3 °F 54.1 °F 92% 30.20 in 3.0 mi Calm Calm - N/A   Clear
4:15 AM 56.3 °F 54.0 °F 92% 30.19 in 2.5 mi Calm Calm - N/A   Clear
4:35 AM 56.1 °F 53.8 °F 92% 30.19 in 2.5 mi Calm Calm - N/A   Clear
4:55 AM 55.9 °F 53.8 °F 92% 30.18 in 2.5 mi Calm Calm - N/A   Clear
5:15 AM 55.9 °F 53.8 °F 92% 30.18 in 2.5 mi Calm Calm - N/A   Mist
5:55 AM 55.9 °F 53.8 °F 92% 30.19 in 3.0 mi Calm Calm - N/A   Mist
6:15 AM 56.5 °F 54.5 °F 93% 30.19 in 4.0 mi Calm Calm - N/A   Clear
6:35 AM 56.3 °F 54.3 °F 93% 30.20 in 3.0 mi North 3.5 mph - N/A   Clear
6:55 AM 56.5 °F 54.3 °F 92% 30.20 in 3.0 mi Calm Calm - N/A   Mist
7:15 AM 56.5 °F 54.3 °F 92% 30.20 in 2.0 mi Calm Calm - N/A   Clear
7:35 AM 57.2 °F 55.0 °F 92% 30.20 in 2.5 mi Calm Calm - N/A   Clear
7:55 AM 57.9 °F 55.6 °F 92% 30.20 in 3.0 mi Calm Calm - N/A   Clear
8:15 AM 58.8 °F 56.5 °F 92% 30.20 in 3.0 mi Calm Calm - N/A   Clear
8:35 AM 60.1 °F 57.6 °F 91% 30.21 in 4.0 mi Calm Calm - N/A   Clear
8:55 AM 61.3 °F 58.3 °F 90% 30.21 in 4.0 mi NNE 3.5 mph - N/A   Clear
9:15 AM 63.1 °F 58.6 °F 85% 30.22 in 5.0 mi NNE 5.8 mph - N/A   Clear
9:35 AM 64.6 °F 58.6 °F 81% 30.23 in 5.0 mi North 4.6 mph - N/A   Haze
9:55 AM 66.9 °F 58.8 °F 75% 30.23 in 7.0 mi NNE 3.5 mph - N/A   Clear
10:15 AM 70.5 °F 59.4 °F 68% 30.22 in 5.0 mi NE 4.6 mph - N/A   Haze
10:35 AM 72.5 °F 60.1 °F 65% 30.22 in 7.0 mi East 3.5 mph - N/A   Clear
10:55 AM 75.0 °F 60.1 °F 60% 30.22 in 7.0 mi East 6.9 mph - N/A   Clear
11:15 AM 76.8 °F 60.1 °F 56% 30.20 in 7.0 mi East 10.4 mph - N/A   Clear
11:35 AM 77.0 °F 59.9 °F 55% 30.20 in 7.0 mi ESE 4.6 mph - N/A   Clear
11:55 AM 77.7 °F 59.5 °F 53% 30.19 in 7.0 mi SE 4.6 mph - N/A   Mostly Cloudy
12:15 PM 77.0 °F 59.0 °F 54% 30.18 in 7.0 mi East 4.6 mph - N/A   Overcast
12:35 PM 78.1 °F 58.8 °F 51% 30.17 in 7.0 mi ESE 3.5 mph - N/A   Overcast
12:55 PM 78.3 °F 58.8 °F 51% 30.16 in 7.0 mi ESE 5.8 mph - N/A   Overcast
1:15 PM 79.2 °F 58.5 °F 49% 30.15 in 7.0 mi Calm Calm - N/A   Overcast
1:35 PM 79.7 °F 58.6 °F 48% 30.13 in 7.0 mi ESE 4.6 mph - N/A   Overcast
1:55 PM 79.0 °F 58.8 °F 50% 30.12 in 7.0 mi SE 8.1 mph - N/A   Overcast
2:15 PM 78.8 °F 59.0 °F 51% 30.12 in 7.0 mi SSE 4.6 mph - N/A   Overcast
2:35 PM 79.3 °F 59.2 °F 50% 30.10 in 7.0 mi ESE 6.9 mph - N/A   Overcast
2:55 PM 79.3 °F 58.8 °F 49% 30.10 in 7.0 mi ESE 5.8 mph - N/A   Overcast
3:15 PM 79.3 °F 59.4 °F 50% 30.10 in 10.0 mi East 6.9 mph - N/A   Overcast
3:35 PM 79.0 °F 59.0 °F 50% 30.10 in 7.0 mi East 6.9 mph - N/A   Overcast
3:55 PM 78.8 °F 59.2 °F 51% 30.09 in 7.0 mi ESE 6.9 mph - N/A   Overcast
4:15 PM 77.9 °F 59.7 °F 53% 30.09 in 5.0 mi SE 8.1 mph - N/A   Haze
4:35 PM 77.7 °F 60.8 °F 56% 30.10 in 7.0 mi ESE 6.9 mph - N/A   Overcast
4:55 PM 76.6 °F 61.5 °F 59% 30.10 in 5.0 mi ESE 9.2 mph - N/A   Haze
5:15 PM 76.3 °F 61.9 °F 61% 30.10 in 7.0 mi ESE 10.4 mph - N/A   Overcast
5:35 PM 75.2 °F 61.9 °F 63% 30.10 in 7.0 mi SE 10.4 mph - N/A   Overcast
5:55 PM 75.2 °F 62.1 °F 64% 30.10 in 7.0 mi ESE 10.4 mph - N/A   Overcast
6:15 PM 74.8 °F 61.9 °F 64% 30.10 in 7.0 mi ESE 8.1 mph - N/A   Overcast
6:35 PM 74.5 °F 61.9 °F 65% 30.11 in 10.0 mi ESE 8.1 mph - N/A   Overcast
6:55 PM 74.3 °F 61.9 °F 65% 30.12 in 7.0 mi ESE 5.8 mph - N/A   Overcast
7:15 PM 73.4 °F 63.0 °F 70% 30.14 in 10.0 mi East 6.9 mph - N/A Rain Light Rain
7:35 PM 73.4 °F 62.6 °F 69% 30.14 in 7.0 mi East 5.8 mph - N/A   Overcast
7:55 PM 72.5 °F 63.1 °F 72% 30.13 in 10.0 mi ESE 4.6 mph - N/A   Overcast
8:15 PM 72.5 °F 62.8 °F 71% 30.14 in 7.0 mi ESE 5.8 mph - N/A   Overcast
9:55 PM 70.0 °F 63.5 °F 80% 30.15 in 7.0 mi Calm Calm - N/A   Overcast
10:15 PM 70.2 °F 63.9 °F 80% 30.14 in 7.0 mi Calm Calm - N/A   Overcast
10:55 PM 70.5 °F 63.9 °F 79% 30.14 in 7.0 mi Calm Calm - N/A   Overcast
11:15 PM 70.3 °F 63.9 °F 80% 30.14 in 7.0 mi Calm Calm - N/A   Overcast
11:35 PM 70.3 °F 63.9 °F 80% 30.13 in 7.0 mi Calm Calm - N/A   Overcast
11:55 PM 70.0 °F 64.6 °F 83% 30.13 in 7.0 mi ESE 3.5 mph - N/A   Overcast